Weather History for Waukegan, IL

Change the Weather History Date:

Thursday, November 3, 2011

  Actual Average Record
Temperature  
Mean Temperature 45 °F -  
Max Temperature 46 °F 53 °F 72 °F (2008)
Min Temperature 44 °F 37 °F 20 °F (2006)
Degree Days  
Heating Degree Days 20 20  
Month to date heating degree days 58  
Since 1 July heating degree days 664  
Cooling Degree Days 0 0  
Month to date cooling degree days 0  
Year to date cooling degree days 564  
Moisture  
Dew Point 40 °F    
Average Humidity 83    
Maximum Humidity 93    
Minimum Humidity 68    
Precipitation  
Precipitation 0.41 in 0.11 in 0.60 in (2003)
Month to date precipitation 0.32  
Year to date precipitation 31.15  
Sea Level Pressure  
Sea Level Pressure 30.08 in    
Wind  
Wind Speed 15 mph (NNE)    
Max Wind Speed 24 mph    
Max Gust Speed 32 mph    
Visibility 9 miles    
Events Rain    
T = Trace of Precipitation, MM = Missing Value Source: NWS Daily Summary

Daily Weather History Graph

Daily Weather History Graph

Search for Another Location

Airport:

Trip Planner

Search our weather history database for the weather conditions in past years. The results will help you decide how hot, cold, wet, or windy it might be!

Date:

Astronomy

Nov. 03, 2011 Rise Set
Actual Time 7:27 AM CDT 5:42 PM CDT
Civil Twilight 6:57 AM CDT 6:11 PM CDT
Nautical Twilight 6:24 AM CDT 6:45 PM CDT
Astronomical Twilight 5:51 AM CDT 7:17 PM CDT
Moon 2:13 PM CDT (11/3) 12:30 AM CDT (11/3)
Length of Visible Light 11h 14m
Length of Day
10h 15m
First Quarter, 60% of the Moon is Illuminated
Nov 3
First Quarter
Nov 10
Full
Nov 18
Last Quarter
Nov 25
New
Dec 2
First Quarter

Hourly Weather History & Observations

Time (CDT) Temp. Windchill Dew Point Humidity Pressure Visibility Wind Dir Wind Speed Gust Speed Precip Events Conditions
12:16 AM 44.6 °F 38.4 °F 42.8 °F 93% 30.06 in 7.0 mi North 12.7 mph 25.3 mph 0.04 in Rain Light Rain
12:29 AM 44.6 °F 38.8 °F 42.8 °F 93% 30.06 in 6.0 mi North 11.5 mph 19.6 mph 0.08 in Rain Rain
12:52 AM 45.0 °F 39.3 °F 42.1 °F 90% 30.07 in 8.0 mi North 11.5 mph 19.6 mph 0.12 in Rain Light Rain
1:41 AM 44.6 °F 37.8 °F 42.8 °F 93% 30.04 in 9.0 mi North 15.0 mph 23.0 mph 0.07 in Rain Light Rain
1:52 AM 45.0 °F 37.9 °F 43.0 °F 93% 30.05 in 9.0 mi NNE 16.1 mph 29.9 mph 0.08 in Rain Light Rain
2:04 AM 44.6 °F 37.2 °F 42.8 °F 93% 30.04 in 10.0 mi NNE 17.3 mph 25.3 mph 0.00 in Rain Light Rain
2:18 AM 44.6 °F 38.4 °F 42.8 °F 93% 30.04 in 10.0 mi NNE 12.7 mph 25.3 mph 0.01 in Rain Light Rain
2:52 AM 46.0 °F 40.2 °F 43.0 °F 89% 30.04 in 8.0 mi NNE 12.7 mph 24.2 mph 0.02 in Rain Light Rain
3:31 AM 44.6 °F 37.4 °F 42.8 °F 93% 30.04 in 8.0 mi NNE 16.1 mph 26.5 mph 0.05 in Rain Light Rain
3:48 AM 44.6 °F 37.2 °F 42.8 °F 93% 30.04 in 7.0 mi NNE 17.3 mph 25.3 mph 0.07 in Rain Light Rain
3:52 AM 45.0 °F 38.2 °F 42.1 °F 90% 30.04 in 7.0 mi NNE 15.0 mph 28.8 mph 0.07 in Rain Light Rain
4:33 AM 44.6 °F 37.4 °F 41.0 °F 87% 30.02 in 10.0 mi NNE 16.1 mph 28.8 mph 0.04 in Rain Light Rain
4:52 AM 45.0 °F 38.9 °F 41.0 °F 86% 30.03 in 10.0 mi NNE 12.7 mph 24.2 mph 0.05 in Rain Light Rain
5:52 AM 45.0 °F 37.4 °F 39.9 °F 82% 30.03 in 10.0 mi NNE 18.4 mph 28.8 mph 0.05 in Rain Light Rain
6:52 AM 45.0 °F 37.4 °F 39.9 °F 82% 30.03 in 10.0 mi NNE 18.4 mph 32.2 mph 0.02 in Rain Light Rain
7:52 AM 46.0 °F 39.0 °F 39.9 °F 79% 30.04 in 10.0 mi NNE 17.3 mph 31.1 mph 0.00 in   Overcast
8:52 AM 46.0 °F 38.5 °F 39.0 °F 76% 30.06 in 10.0 mi NNE 19.6 mph 32.2 mph N/A   Overcast
9:52 AM 46.9 °F - 39.9 °F 77% 30.09 in 10.0 mi NE 17.3 mph 29.9 mph N/A   Overcast
10:52 AM 46.9 °F - 39.9 °F 77% 30.08 in 10.0 mi NE 19.6 mph 31.1 mph N/A   Overcast
11:52 AM 46.9 °F - 39.9 °F 77% 30.06 in 10.0 mi NNE 24.2 mph 32.2 mph 0.00 in   Overcast
12:52 PM 46.9 °F - 39.9 °F 77% 30.07 in 10.0 mi NNE 11.5 mph 31.1 mph N/A   Overcast
2:38 PM 46.4 °F 40.4 °F 37.4 °F 71% 30.07 in 10.0 mi North 13.8 mph 24.2 mph N/A   Overcast
2:52 PM 46.0 °F 39.3 °F 37.0 °F 71% 30.08 in 10.0 mi North 16.1 mph 25.3 mph N/A   Overcast
3:52 PM 46.9 °F - 37.0 °F 68% 30.08 in 10.0 mi North 16.1 mph 31.1 mph N/A   Overcast
4:52 PM 46.9 °F - 37.0 °F 68% 30.11 in 10.0 mi North 15.0 mph 24.2 mph N/A   Overcast
7:52 PM 45.0 °F 39.7 °F 37.9 °F 76% 30.17 in 10.0 mi North 10.4 mph 17.3 mph N/A   Clear
8:15 PM 44.6 °F 38.4 °F 37.4 °F 76% 30.16 in 10.0 mi North 12.7 mph 19.6 mph N/A   Mostly Cloudy
8:52 PM 45.0 °F 38.5 °F 39.0 °F 80% 30.18 in 10.0 mi North 13.8 mph 23.0 mph N/A   Scattered Clouds
10:52 PM 45.0 °F 38.5 °F 37.9 °F 76% 30.20 in 10.0 mi North 13.8 mph 23.0 mph N/A   Clear
11:25 PM 44.6 °F 38.4 °F 39.2 °F 81% 30.19 in 10.0 mi NNE 12.7 mph 19.6 mph N/A   Mostly Cloudy
11:52 PM 46.0 °F 40.6 °F 39.9 °F 79% 30.21 in 10.0 mi NNE 11.5 mph 20.7 mph N/A   Mostly Cloudy